StationID,Date,MaxTemp,MinTemp,Precipitation,Snowfall,SnowDepth
"CA003033895","1966-07-01",,,,0.00,
"CA003033895","1966-07-02",,,,0.00,
"CA003033895","1966-07-03",,,,0.00,
"CA003033895","1966-07-04",,,,0.00,
"CA003033895","1966-07-05",,,,0.00,
"CA003033895","1966-07-06",,,,0.00,
"CA003033895","1966-07-07",,,,0.00,
"CA003033895","1966-07-08",,,,0.00,
"CA003033895","1966-07-09",,,,0.00,
"CA003033895","1966-07-10",,,,0.00,
"CA003033895","1966-07-11",,,,0.00,
"CA003033895","1966-07-12",,,,0.00,
"CA003033895","1966-07-13",,,,0.00,
"CA003033895","1966-07-14",,,,0.00,
"CA003033895","1966-07-15",,,127.00,0.00,
"CA003033895","1966-07-16",,,0.00,0.00,
"CA003033895","1966-07-17",,,0.00,0.00,
"CA003033895","1966-07-18",,,0.00,0.00,
"CA003033895","1966-07-19",,,0.00,0.00,
"CA003033895","1966-07-20",78.08,,0.00,0.00,
"CA003033895","1966-07-21",74.12,39.02,0.00,0.00,
"CA003033895","1966-07-22",75.02,44.96,0.00,0.00,
"CA003033895","1966-07-23",82.04,46.94,0.00,0.00,
"CA003033895","1966-07-24",74.12,49.10,340.00,0.00,
"CA003033895","1966-07-25",71.96,50.00,0.00,0.00,
"CA003033895","1966-07-26",68.00,44.06,0.00,0.00,
"CA003033895","1966-07-27",76.10,44.06,0.00,0.00,
"CA003033895","1966-07-28",80.96,46.94,0.00,0.00,
"CA003033895","1966-07-29",87.08,55.94,0.00,0.00,
"CA003033895","1966-07-30",76.10,51.98,0.00,0.00,
"CA003033895","1966-07-31",76.10,51.08,0.00,0.00,
"CA003033895","1966-08-01",87.98,53.06,0.00,0.00,
"CA003033895","1966-08-02",87.08,53.96,0.00,0.00,
"CA003033895","1966-08-03",85.10,50.00,8.00,0.00,
"CA003033895","1966-08-04",78.98,53.06,112.00,0.00,
"CA003033895","1966-08-05",76.10,53.96,132.00,0.00,
"CA003033895","1966-08-06",67.10,51.08,8.00,0.00,
"CA003033895","1966-08-07",69.08,51.08,0.00,0.00,
"CA003033895","1966-08-08",76.10,51.08,0.00,0.00,
"CA003033895","1966-08-09",82.04,51.08,0.00,0.00,
"CA003033895","1966-08-10",83.12,51.08,0.00,0.00,
"CA003033895","1966-08-11",64.94,41.00,0.00,0.00,
"CA003033895","1966-08-12",69.08,37.04,0.00,0.00,
"CA003033895","1966-08-13",76.10,48.02,0.00,0.00,
"CA003033895","1966-08-14",78.08,46.94,0.00,0.00,
"CA003033895","1966-08-15",83.12,53.06,0.00,0.00,
"CA003033895","1966-08-16",84.02,46.04,0.00,0.00,
"CA003033895","1966-08-17",77.00,39.02,0.00,0.00,
"CA003033895","1966-08-18",71.96,41.00,48.00,0.00,
"CA003033895","1966-08-19",50.00,48.02,305.00,0.00,
"CA003033895","1966-08-20",62.06,48.02,5.00,0.00,
"CA003033895","1966-08-21",66.02,37.94,0.00,0.00,
"CA003033895","1966-08-22",69.98,41.00,0.00,0.00,
"CA003033895","1966-08-23",78.98,39.92,0.00,0.00,
"CA003033895","1966-08-24",87.08,42.08,0.00,0.00,
"CA003033895","1966-08-25",89.06,44.96,0.00,0.00,
"CA003033895","1966-08-26",84.02,49.10,0.00,0.00,
"CA003033895","1966-08-27",69.08,58.10,0.00,0.00,
"CA003033895","1966-08-28",71.06,48.02,3.00,0.00,
"CA003033895","1966-08-29",73.04,41.00,79.00,0.00,
"CA003033895","1966-08-30",67.10,50.00,0.00,0.00,
"CA003033895","1966-08-31",69.98,42.98,0.00,0.00,
"CA003033895","1966-09-01",74.12,39.92,0.00,0.00,
"CA003033895","1966-09-02",76.10,44.06,0.00,0.00,
"CA003033895","1966-09-03",77.00,39.02,0.00,0.00,
"CA003033895","1966-09-04",84.02,46.04,0.00,0.00,
"CA003033895","1966-09-05",89.06,48.02,0.00,0.00,
"CA003033895","1966-09-06",92.12,48.02,0.00,0.00,
"CA003033895","1966-09-07",74.12,51.08,0.00,0.00,
"CA003033895","1966-09-08",80.96,44.96,0.00,0.00,
"CA003033895","1966-09-09",84.02,42.98,0.00,0.00,
"CA003033895","1966-09-10",87.98,41.00,0.00,0.00,
"CA003033895","1966-09-11",69.08,48.02,0.00,0.00,
"CA003033895","1966-09-12",62.96,53.96,0.00,0.00,
"CA003033895","1966-09-13",71.96,46.04,0.00,0.00,
"CA003033895","1966-09-14",71.06,35.06,0.00,0.00,
"CA003033895","1966-09-15",68.00,30.92,0.00,0.00,
"CA003033895","1966-09-16",78.98,37.04,0.00,0.00,
"CA003033895","1966-09-17",80.96,44.06,0.00,0.00,
"CA003033895","1966-09-18",89.96,48.02,25.00,0.00,
"CA003033895","1966-09-19",71.96,49.10,0.00,0.00,
"CA003033895","1966-09-20",73.04,44.96,0.00,0.00,
"CA003033895","1966-09-21",83.12,44.96,0.00,0.00,
"CA003033895","1966-09-22",76.10,41.00,0.00,0.00,
"CA003033895","1966-09-23",71.96,39.92,0.00,0.00,
"CA003033895","1966-09-24",60.98,42.08,0.00,0.00,
"CA003033895","1966-09-25",60.98,39.02,0.00,0.00,
"CA003033895","1966-09-26",62.96,46.94,0.00,0.00,
"CA003033895","1966-09-27",71.06,41.00,0.00,0.00,
"CA003033895","1966-09-28",68.00,50.00,51.00,0.00,
"CA003033895","1966-09-29",57.02,44.06,0.00,0.00,
"CA003033895","1966-09-30",66.02,28.94,0.00,0.00,
"CA003033895","1966-10-01",60.98,42.08,104.00,0.00,
"CA003033895","1966-10-02",46.94,39.02,13.00,0.00,
"CA003033895","1966-10-03",57.02,26.96,0.00,0.00,
"CA003033895","1966-10-04",68.00,39.02,0.00,0.00,
"CA003033895","1966-10-05",77.00,41.00,0.00,0.00,
"CA003033895","1966-10-06",77.00,50.00,0.00,0.00,
"CA003033895","1966-10-07",69.08,51.08,0.00,0.00,
"CA003033895","1966-10-08",53.96,42.98,51.00,0.00,
"CA003033895","1966-10-09",58.10,28.94,0.00,0.00,
"CA003033895","1966-10-10",66.02,28.04,8.00,0.00,
"CA003033895","1966-10-11",55.04,41.00,5.00,0.00,
"CA003033895","1966-10-12",,33.98,,0.00,
"CA003033895","1966-10-13",,,,0.00,
"CA003033895","1966-10-14",,,,0.00,
"CA003033895","1966-10-15",,,,0.00,
"CA003033895","1966-10-16",,,,0.00,
"CA003033895","1966-10-17",,,,0.00,
"CA003033895","1966-10-18",,,,0.00,
"CA003033895","1966-10-19",,,,0.00,
"CA003033895","1966-10-20",,,,0.00,
"CA003033895","1966-10-21",,,,0.00,
"CA003033895","1966-10-22",,,,0.00,
"CA003033895","1966-10-23",,,,0.00,
"CA003033895","1966-10-24",,,,0.00,
"CA003033895","1966-10-25",,,,0.00,
"CA003033895","1966-10-26",,,,0.00,
"CA003033895","1966-10-27",,,,0.00,
"CA003033895","1966-10-28",,,,0.00,
"CA003033895","1966-10-29",,,,0.00,
"CA003033895","1966-10-30",,,,0.00,
"CA003033895","1966-10-31",,,,0.00,
"CA003033895","1967-06-01",64.04,46.04,0.00,0.00,
"CA003033895","1967-06-02",74.12,41.00,124.00,0.00,
"CA003033895","1967-06-03",55.94,44.06,3.00,0.00,
"CA003033895","1967-06-04",59.00,42.98,0.00,0.00,
"CA003033895","1967-06-05",71.06,37.94,0.00,0.00,
"CA003033895","1967-06-06",71.06,39.92,0.00,0.00,
"CA003033895","1967-06-07",71.96,50.00,0.00,0.00,
"CA003033895","1967-06-08",68.00,48.02,104.00,0.00,
"CA003033895","1967-06-09",69.08,49.10,282.00,0.00,
"CA003033895","1967-06-10",46.94,37.94,0.00,0.00,
"CA003033895","1967-06-11",62.06,39.92,0.00,0.00,
"CA003033895","1967-06-12",58.10,42.98,0.00,0.00,
"CA003033895","1967-06-13",64.94,42.08,0.00,0.00,
"CA003033895","1967-06-14",71.96,41.00,0.00,0.00,
"CA003033895","1967-06-15",80.06,46.94,0.00,0.00,
"CA003033895","1967-06-16",77.00,50.00,124.00,0.00,
"CA003033895","1967-06-17",67.10,53.06,30.00,0.00,
"CA003033895","1967-06-18",60.08,49.10,8.00,0.00,
"CA003033895","1967-06-19",71.96,44.06,0.00,0.00,
"CA003033895","1967-06-20",73.04,53.06,0.00,0.00,
"CA003033895","1967-06-21",71.06,46.04,0.00,0.00,
"CA003033895","1967-06-22",64.04,46.94,0.00,0.00,
"CA003033895","1967-06-23",64.94,35.06,0.00,0.00,
"CA003033895","1967-06-24",73.04,42.08,0.00,0.00,
"CA003033895","1967-06-25",78.98,42.98,0.00,0.00,
"CA003033895","1967-06-26",83.12,51.08,0.00,0.00,
"CA003033895","1967-06-27",78.98,60.08,0.00,0.00,
"CA003033895","1967-06-28",80.96,49.10,0.00,0.00,
"CA003033895","1967-06-29",80.06,58.10,0.00,0.00,
"CA003033895","1967-06-30",69.08,42.98,48.00,0.00,
"CA003033895","1967-07-01",71.06,42.98,0.00,0.00,
"CA003033895","1967-07-02",83.12,44.06,0.00,0.00,
"CA003033895","1967-07-03",84.02,50.00,0.00,0.00,
"CA003033895","1967-07-04",86.00,55.94,0.00,0.00,
"CA003033895","1967-07-05",74.12,53.06,53.00,0.00,
"CA003033895","1967-07-06",78.98,46.04,0.00,0.00,
"CA003033895","1967-07-07",78.08,44.96,0.00,0.00,
"CA003033895","1967-07-08",78.08,51.98,0.00,0.00,
"CA003033895","1967-07-09",71.96,44.06,0.00,0.00,
"CA003033895","1967-07-10",73.04,39.02,0.00,0.00,
"CA003033895","1967-07-11",82.04,41.00,0.00,0.00,
"CA003033895","1967-07-12",85.10,49.10,0.00,0.00,
"CA003033895","1967-07-13",87.98,60.08,5.00,0.00,
"CA003033895","1967-07-14",84.02,53.06,0.00,0.00,
"CA003033895","1967-07-15",84.02,51.98,0.00,0.00,
"CA003033895","1967-07-16",89.06,51.08,0.00,0.00,
"CA003033895","1967-07-17",75.02,62.06,5.00,0.00,
"CA003033895","1967-07-18",83.12,55.94,0.00,0.00,
"CA003033895","1967-07-19",82.04,51.98,0.00,0.00,
"CA003033895","1967-07-20",78.08,53.96,0.00,0.00,
"CA003033895","1967-07-21",76.10,49.10,0.00,0.00,
"CA003033895","1967-07-22",76.10,42.98,0.00,0.00,
"CA003033895","1967-07-23",83.12,42.98,0.00,0.00,
"CA003033895","1967-07-24",89.06,51.98,0.00,0.00,
"CA003033895","1967-07-25",71.96,46.94,0.00,0.00,
"CA003033895","1967-07-26",80.06,44.06,0.00,0.00,
"CA003033895","1967-07-27",87.98,48.02,0.00,0.00,
"CA003033895","1967-07-28",89.06,53.96,0.00,0.00,
"CA003033895","1967-07-29",89.06,53.96,0.00,0.00,
"CA003033895","1967-07-30",87.08,51.98,0.00,0.00,
"CA003033895","1967-07-31",74.12,53.06,3.00,0.00,
"CA003033895","1967-08-01",77.00,42.08,0.00,0.00,
"CA003033895","1967-08-02",76.10,42.08,0.00,0.00,
"CA003033895","1967-08-03",82.04,39.92,0.00,0.00,
"CA003033895","1967-08-04",89.96,44.96,0.00,0.00,
"CA003033895","1967-08-05",76.10,53.96,0.00,0.00,
"CA003033895","1967-08-06",76.10,50.00,122.00,0.00,
"CA003033895","1967-08-07",64.94,51.98,15.00,0.00,
"CA003033895","1967-08-08",73.04,44.06,0.00,0.00,
"CA003033895","1967-08-09",82.04,46.04,0.00,0.00,
"CA003033895","1967-08-10",89.06,50.00,0.00,0.00,
"CA003033895","1967-08-11",87.08,50.00,0.00,0.00,
"CA003033895","1967-08-12",89.06,51.08,0.00,0.00,
"CA003033895","1967-08-13",89.96,49.10,0.00,0.00,
"CA003033895","1967-08-14",87.98,50.00,0.00,0.00,
"CA003033895","1967-08-15",91.04,50.00,0.00,0.00,
"CA003033895","1967-08-16",87.98,48.02,0.00,0.00,
"CA003033895","1967-08-17",80.96,46.94,0.00,0.00,
"CA003033895","1967-08-18",89.96,50.00,0.00,0.00,
"CA003033895","1967-08-19",89.96,50.00,0.00,0.00,
"CA003033895","1967-08-20",94.10,49.10,0.00,0.00,
"CA003033895","1967-08-21",87.08,55.94,0.00,0.00,
"CA003033895","1967-08-22",86.00,46.04,0.00,0.00,
"CA003033895","1967-08-23",91.04,49.10,0.00,0.00,
"CA003033895","1967-08-24",75.02,37.94,0.00,0.00,
"CA003033895","1967-08-25",69.08,48.02,0.00,0.00,
"CA003033895","1967-08-26",85.10,42.08,0.00,0.00,
"CA003033895","1967-08-27",87.98,53.96,0.00,0.00,
"CA003033895","1967-08-28",75.02,59.00,0.00,0.00,
"CA003033895","1967-08-29",82.04,42.08,0.00,0.00,
"CA003033895","1967-08-30",84.02,46.94,0.00,0.00,
"CA003033895","1967-08-31",87.08,53.06,0.00,0.00,
"CA003033895","1967-09-01",98.06,49.10,0.00,0.00,
"CA003033895","1967-09-02",80.06,60.08,0.00,0.00,
"CA003033895","1967-09-03",86.00,46.04,0.00,0.00,
"CA003033895","1967-09-04",89.96,50.00,0.00,0.00,
"CA003033895","1967-09-05",98.06,50.00,0.00,0.00,
"CA003033895","1967-09-06",80.96,68.00,0.00,0.00,
"CA003033895","1967-09-07",77.00,44.96,0.00,0.00,
"CA003033895","1967-09-08",86.00,44.06,0.00,0.00,
"CA003033895","1967-09-09",84.02,59.00,0.00,0.00,
"CA003033895","1967-09-10",85.10,44.96,10.00,0.00,
"CA003033895","1967-09-11",68.00,51.98,58.00,0.00,
"CA003033895","1967-09-12",64.94,46.04,0.00,0.00,
"CA003033895","1967-09-13",69.98,46.04,0.00,0.00,
"CA003033895","1967-09-14",77.00,37.94,0.00,0.00,
"CA003033895","1967-09-15",75.02,37.94,0.00,0.00,
"CA003033895","1967-09-16",71.96,37.94,0.00,0.00,
"CA003033895","1967-09-17",71.96,35.06,0.00,0.00,
"CA003033895","1967-09-18",76.10,35.96,0.00,0.00,
"CA003033895","1967-09-19",86.00,49.10,0.00,0.00,
"CA003033895","1967-09-20",69.08,46.04,0.00,0.00,
"CA003033895","1967-09-21",89.96,39.02,0.00,0.00,
"CA003033895","1967-09-22",60.98,50.00,0.00,0.00,
"CA003033895","1967-09-23",76.10,35.06,0.00,0.00,
"CA003033895","1967-09-24",87.98,44.06,0.00,0.00,
"CA003033895","1967-09-25",66.02,39.92,0.00,0.00,
"CA003033895","1967-09-26",71.06,33.08,0.00,0.00,
"CA003033895","1967-09-27",89.96,41.00,0.00,0.00,
"CA003033895","1967-09-28",89.96,58.10,0.00,0.00,
"CA003033895","1967-09-29",91.04,46.04,0.00,0.00,
"CA003033895","1967-09-30",62.06,59.00,0.00,0.00,
"CA003033895","1967-10-01",62.96,37.04,0.00,0.00,
"CA003033895","1967-10-02",62.96,41.00,0.00,0.00,
"CA003033895","1967-10-03",62.06,42.98,0.00,0.00,
"CA003033895","1967-10-04",64.04,28.94,0.00,0.00,
"CA003033895","1967-10-05",55.04,30.92,0.00,0.00,
"CA003033895","1967-10-06",62.96,28.04,0.00,0.00,
"CA003033895","1967-10-07",62.96,37.04,0.00,0.00,
"CA003033895","1967-10-08",76.10,37.94,0.00,0.00,
"CA003033895","1967-10-09",69.08,30.02,0.00,0.00,
"CA003033895","1967-10-10",75.02,37.04,0.00,0.00,
"CA003033895","1967-10-11",67.10,48.02,0.00,0.00,
"CA003033895","1967-10-12",55.04,46.94,0.00,0.00,
"CA003033895","1967-10-13",60.08,30.02,0.00,0.00,
"CA003033895","1967-10-14",59.00,28.94,0.00,0.00,
"CA003033895","1967-10-15",59.00,28.04,0.00,0.00,
"CA003033895","1967-10-16",64.04,42.08,0.00,0.00,
"CA003033895","1967-10-17",55.94,21.02,0.00,0.00,
"CA003033895","1967-10-18",,37.94,,0.00,
"CA003033895","1967-10-19",,,,0.00,
"CA003033895","1967-10-20",,,,0.00,
"CA003033895","1967-10-21",,,,0.00,
"CA003033895","1967-10-22",,,,0.00,
"CA003033895","1967-10-23",,,,0.00,
"CA003033895","1967-10-24",,,,0.00,
"CA003033895","1967-10-25",,,,0.00,
"CA003033895","1967-10-26",,,,0.00,
"CA003033895","1967-10-27",,,,0.00,
"CA003033895","1967-10-28",,,,0.00,
"CA003033895","1967-10-29",,,,0.00,
"CA003033895","1967-10-30",,,,0.00,
"CA003033895","1967-10-31",,,,0.00,
"CA003033895","1968-05-01",60.98,44.06,0.00,0.00,
"CA003033895","1968-05-02",59.00,30.92,0.00,0.00,
"CA003033895","1968-05-03",62.06,28.94,0.00,0.00,
"CA003033895","1968-05-04",69.98,35.96,0.00,0.00,
"CA003033895","1968-05-05",55.94,33.98,8.00,0.00,
"CA003033895","1968-05-06",44.06,35.06,213.00,0.00,
"CA003033895","1968-05-07",44.96,33.08,41.00,0.00,
"CA003033895","1968-05-08",55.04,32.00,0.00,0.00,
"CA003033895","1968-05-09",57.02,30.02,0.00,0.00,
"CA003033895","1968-05-10",51.98,19.94,0.00,0.00,
"CA003033895","1968-05-11",71.06,30.02,0.00,0.00,
"CA003033895","1968-05-12",73.04,35.06,5.00,0.00,
"CA003033895","1968-05-13",53.06,39.02,0.00,0.00,
"CA003033895","1968-05-14",49.10,37.94,0.00,0.00,
"CA003033895","1968-05-15",58.10,30.02,0.00,0.00,
"CA003033895","1968-05-16",69.08,35.06,0.00,0.00,
"CA003033895","1968-05-17",66.02,44.06,0.00,0.00,
"CA003033895","1968-05-18",62.06,28.04,0.00,0.00,
"CA003033895","1968-05-19",66.02,30.02,0.00,0.00,
"CA003033895","1968-05-20",75.02,37.94,0.00,0.00,
"CA003033895","1968-05-21",74.12,42.98,0.00,0.00,
"CA003033895","1968-05-22",69.08,46.94,8.00,0.00,
"CA003033895","1968-05-23",68.00,41.00,0.00,0.00,
"CA003033895","1968-05-24",66.02,46.94,30.00,0.00,
"CA003033895","1968-05-25",69.08,35.96,15.00,0.00,
"CA003033895","1968-05-26",64.04,44.96,8.00,0.00,
"CA003033895","1968-05-27",67.10,48.02,0.00,0.00,
"CA003033895","1968-05-28",73.04,35.96,0.00,0.00,
"CA003033895","1968-05-29",71.06,41.00,64.00,0.00,
"CA003033895","1968-05-30",57.02,39.92,0.00,0.00,
"CA003033895","1968-05-31",67.10,35.96,0.00,0.00,
"CA003033895","1968-06-01",74.12,42.08,0.00,0.00,
"CA003033895","1968-06-02",80.06,55.94,0.00,0.00,
"CA003033895","1968-06-03",67.10,53.06,8.00,0.00,
"CA003033895","1968-06-04",69.08,35.06,155.00,0.00,
"CA003033895","1968-06-05",62.96,48.02,0.00,0.00,
"CA003033895","1968-06-06",64.04,44.06,71.00,0.00,
"CA003033895","1968-06-07",60.98,50.00,191.00,0.00,
"CA003033895","1968-06-08",67.10,49.10,25.00,0.00,
"CA003033895","1968-06-09",68.00,48.02,0.00,0.00,
"CA003033895","1968-06-10",69.98,41.00,0.00,0.00,
"CA003033895","1968-06-11",78.08,48.02,33.00,0.00,
"CA003033895","1968-06-12",68.00,51.98,0.00,0.00,
"CA003033895","1968-06-13",58.10,37.04,56.00,0.00,
"CA003033895","1968-06-14",57.02,42.08,0.00,0.00,
"CA003033895","1968-06-15",67.10,35.96,0.00,0.00,
"CA003033895","1968-06-16",74.12,37.94,0.00,0.00,
"CA003033895","1968-06-17",76.10,48.02,0.00,0.00,
"CA003033895","1968-06-18",80.06,44.96,0.00,0.00,
"CA003033895","1968-06-19",89.06,53.96,0.00,0.00,
"CA003033895","1968-06-20",74.12,44.96,0.00,0.00,
"CA003033895","1968-06-21",77.00,46.04,0.00,0.00,
"CA003033895","1968-06-22",71.96,48.02,20.00,0.00,
"CA003033895","1968-06-23",60.08,46.04,117.00,0.00,
"CA003033895","1968-06-24",64.94,48.02,0.00,0.00,
"CA003033895","1968-06-25",78.98,46.04,0.00,0.00,
"CA003033895","1968-06-26",87.98,60.08,0.00,0.00,
"CA003033895","1968-06-27",76.10,50.00,8.00,0.00,
"CA003033895","1968-06-28",67.10,44.96,0.00,0.00,
"CA003033895","1968-06-29",48.02,35.96,348.00,0.00,
"CA003033895","1968-06-30",57.02,42.08,8.00,0.00,
"CA003033895","1968-07-01",69.98,37.94,0.00,0.00,
"CA003033895","1968-07-02",78.98,42.98,0.00,0.00,
"CA003033895","1968-07-03",85.10,44.96,0.00,0.00,
"CA003033895","1968-07-04",84.02,48.02,0.00,0.00,
"CA003033895","1968-07-05",91.04,51.08,0.00,0.00,
"CA003033895","1968-07-06",84.02,55.04,0.00,0.00,
"CA003033895","1968-07-07",74.12,60.08,0.00,0.00,
"CA003033895","1968-07-08",80.06,51.98,0.00,0.00,
"CA003033895","1968-07-09",95.00,53.96,0.00,0.00,
"CA003033895","1968-07-10",86.00,55.04,0.00,0.00,
"CA003033895","1968-07-11",87.08,55.04,5.00,0.00,
"CA003033895","1968-07-12",75.02,60.98,0.00,0.00,
"CA003033895","1968-07-13",75.02,50.00,0.00,0.00,
"CA003033895","1968-07-14",75.02,46.04,0.00,0.00,
"CA003033895","1968-07-15",77.00,48.02,0.00,0.00,
"CA003033895","1968-07-16",76.10,42.98,3.00,0.00,
"CA003033895","1968-07-17",62.06,49.10,30.00,0.00,
"CA003033895","1968-07-18",78.08,37.94,0.00,0.00,
"CA003033895","1968-07-19",84.02,44.06,13.00,0.00,
"CA003033895","1968-07-20",59.00,49.10,3.00,0.00,
"CA003033895","1968-07-21",73.04,39.92,0.00,0.00,
"CA003033895","1968-07-22",69.98,44.96,0.00,0.00,
"CA003033895","1968-07-23",62.96,41.00,3.00,0.00,
"CA003033895","1968-07-24",74.12,37.04,0.00,0.00,
"CA003033895","1968-07-25",83.12,42.08,0.00,0.00,
"CA003033895","1968-07-26",73.04,46.94,0.00,0.00,
"CA003033895","1968-07-27",85.10,46.94,0.00,0.00,
"CA003033895","1968-07-28",92.12,49.10,0.00,0.00,
"CA003033895","1968-07-29",78.08,51.98,89.00,0.00,
"CA003033895","1968-07-30",62.96,46.04,8.00,0.00,
"CA003033895","1968-07-31",78.08,35.96,0.00,0.00,
"CA003033895","1968-08-01",86.00,42.98,0.00,0.00,
"CA003033895","1968-08-02",83.12,49.10,0.00,0.00,
"CA003033895","1968-08-03",89.06,46.94,30.00,0.00,
"CA003033895","1968-08-04",82.04,51.08,5.00,0.00,
"CA003033895","1968-08-05",85.10,46.94,0.00,0.00,
"CA003033895","1968-08-06",71.06,51.08,0.00,0.00,
"CA003033895","1968-08-07",64.04,46.94,0.00,0.00,
"CA003033895","1968-08-08",62.96,39.92,0.00,0.00,
"CA003033895","1968-08-09",66.02,49.10,0.00,0.00,
"CA003033895","1968-08-10",78.98,42.98,0.00,0.00,
"CA003033895","1968-08-11",78.98,50.00,0.00,0.00,
"CA003033895","1968-08-12",69.98,39.92,0.00,0.00,
"CA003033895","1968-08-13",75.02,48.02,0.00,0.00,
"CA003033895","1968-08-14",55.94,51.08,94.00,0.00,
"CA003033895","1968-08-15",55.04,48.02,41.00,0.00,
"CA003033895","1968-08-16",67.10,39.02,0.00,0.00,
"CA003033895","1968-08-17",64.04,41.00,5.00,0.00,
"CA003033895","1968-08-18",66.02,42.98,64.00,0.00,
"CA003033895","1968-08-19",64.94,50.00,18.00,0.00,
"CA003033895","1968-08-20",60.08,42.98,15.00,0.00,
"CA003033895","1968-08-21",71.06,49.10,0.00,0.00,
"CA003033895","1968-08-22",73.04,42.98,0.00,0.00,
"CA003033895","1968-08-23",75.02,42.08,0.00,0.00,
"CA003033895","1968-08-24",78.08,49.10,0.00,0.00,
"CA003033895","1968-08-25",89.96,44.96,0.00,0.00,
"CA003033895","1968-08-26",77.00,53.06,0.00,0.00,
"CA003033895","1968-08-27",77.00,51.08,15.00,0.00,
"CA003033895","1968-08-28",69.98,46.04,0.00,0.00,
"CA003033895","1968-08-29",77.00,39.92,0.00,0.00,
"CA003033895","1968-08-30",76.10,46.04,0.00,0.00,
"CA003033895","1968-08-31",87.08,41.00,0.00,0.00,
"CA003033895","1968-09-01",77.00,58.10,30.00,,
"CA003033895","1968-09-02",62.96,44.06,8.00,,
"CA003033895","1968-09-03",62.96,39.92,33.00,,
"CA003033895","1968-09-04",60.98,44.06,0.00,,
"CA003033895","1968-09-05",71.96,39.02,0.00,,
"CA003033895","1968-09-06",80.96,46.94,33.00,,
"CA003033895","1968-09-07",69.08,49.10,0.00,,
"CA003033895","1968-09-08",80.96,37.94,0.00,,
"CA003033895","1968-09-09",86.00,44.96,0.00,,
"CA003033895","1968-09-10",92.12,49.10,0.00,,
"CA003033895","1968-09-11",89.06,49.10,3.00,,
"CA003033895","1968-09-12",71.06,50.00,0.00,,
"CA003033895","1968-09-13",69.08,48.02,0.00,,
"CA003033895","1968-09-14",71.96,49.10,0.00,,
"CA003033895","1968-09-15",64.04,46.04,33.00,,
"CA003033895","1968-09-16",66.02,33.98,0.00,,
"CA003033895","1968-09-17",73.04,46.04,46.00,,
"CA003033895","1968-09-18",53.06,46.94,5.00,,
"CA003033895","1968-09-19",51.98,42.08,152.00,,
"CA003033895","1968-09-20",33.98,32.00,246.00,,
"CA003033895","1968-09-21",39.92,32.00,414.00,,
"CA003033895","1968-09-22",57.02,32.00,0.00,,
"CA003033895","1968-09-23",58.10,37.94,0.00,,
"CA003033895","1968-09-24",69.08,30.92,0.00,,
"CA003033895","1968-09-25",71.96,42.08,0.00,,
"CA003033895","1968-09-26",69.98,33.98,0.00,,
"CA003033895","1968-09-27",58.10,46.04,0.00,,
"CA003033895","1968-09-28",73.04,35.06,0.00,,
"CA003033895","1968-09-29",80.06,39.92,0.00,,
"CA003033895","1968-09-30",62.06,46.94,0.00,,
"CA003033895","1968-10-01",42.08,37.04,33.00,0.00,
"CA003033895","1968-10-02",50.00,28.94,0.00,0.00,
"CA003033895","1968-10-03",64.04,24.98,0.00,0.00,
"CA003033895","1968-10-04",67.10,35.96,0.00,0.00,
"CA003033895","1968-10-05",62.06,37.04,0.00,0.00,
"CA003033895","1968-10-06",60.08,37.94,61.00,0.00,
"CA003033895","1968-10-07",37.04,33.98,36.00,0.00,
"CA003033895","1968-10-08",44.96,26.96,0.00,0.00,
"CA003033895","1968-10-09",53.96,26.06,0.00,0.00,
"CA003033895","1968-10-10",55.94,32.00,0.00,0.00,
"CA003033895","1968-10-11",46.04,28.04,13.00,0.00,
"CA003033895","1968-10-12",53.06,32.00,0.00,0.00,
"CA003033895","1968-10-13",53.06,32.00,0.00,0.00,
"CA003033895","1968-10-14",55.94,24.98,0.00,0.00,
"CA003033895","1968-10-15",55.04,30.02,0.00,0.00,
"CA003033895","1968-10-16",51.08,26.06,0.00,0.00,
"CA003033895","1968-10-17",,28.94,,0.00,
"CA003033895","1968-10-18",,,,0.00,
"CA003033895","1968-10-19",,,,0.00,
"CA003033895","1968-10-20",,,,0.00,
"CA003033895","1968-10-21",,,,0.00,
"CA003033895","1968-10-22",,,,0.00,
"CA003033895","1968-10-23",,,,0.00,
"CA003033895","1968-10-24",,,,0.00,
"CA003033895","1968-10-25",,,,0.00,
"CA003033895","1968-10-26",,,,0.00,
"CA003033895","1968-10-27",,,,0.00,
"CA003033895","1968-10-28",,,,0.00,
"CA003033895","1968-10-29",,,,0.00,
"CA003033895","1968-10-30",,,,0.00,
"CA003033895","1968-10-31",,,,0.00,
"CA003033895","1969-05-01",57.02,37.94,0.00,0.00,
"CA003033895","1969-05-02",55.04,30.92,5.00,0.00,
"CA003033895","1969-05-03",60.98,28.94,0.00,0.00,
"CA003033895","1969-05-04",69.08,26.06,0.00,0.00,
"CA003033895","1969-05-05",73.04,,0.00,0.00,
"CA003033895","1969-05-06",75.02,28.04,0.00,0.00,
"CA003033895","1969-05-07",60.98,37.94,0.00,0.00,
"CA003033895","1969-05-08",75.02,26.96,0.00,0.00,
"CA003033895","1969-05-09",71.06,41.00,0.00,0.00,
"CA003033895","1969-05-10",77.00,30.02,0.00,0.00,
"CA003033895","1969-05-11",82.04,44.06,0.00,0.00,
"CA003033895","1969-05-12",78.98,41.00,0.00,0.00,
"CA003033895","1969-05-13",82.04,46.04,0.00,0.00,
"CA003033895","1969-05-14",69.08,49.10,46.00,0.00,
"CA003033895","1969-05-15",46.94,37.04,0.00,0.00,
"CA003033895","1969-05-16",57.02,35.96,53.00,0.00,
"CA003033895","1969-05-17",64.04,42.98,0.00,0.00,
"CA003033895","1969-05-18",58.10,39.02,25.00,0.00,
"CA003033895","1969-05-19",51.98,41.00,0.00,0.00,
"CA003033895","1969-05-20",55.04,37.94,0.00,0.00,
"CA003033895","1969-05-21",69.08,33.98,0.00,0.00,
"CA003033895","1969-05-22",75.02,41.00,0.00,0.00,
"CA003033895","1969-05-23",78.98,46.04,0.00,0.00,
"CA003033895","1969-05-24",85.10,46.94,0.00,0.00,
"CA003033895","1969-05-25",78.98,51.98,0.00,0.00,
"CA003033895","1969-05-26",71.96,49.10,0.00,0.00,
"CA003033895","1969-05-27",71.96,49.10,0.00,0.00,
"CA003033895","1969-05-28",67.10,46.94,0.00,0.00,